DW0841 Weather Reports


Display with metric or nautical units.
time (UTC)temp
F
wind
direction
speed
MPH
gust
MPH
rain 1hr
in
rain 24hr
in
rain mn
in
humidity
%
barometer
mb
20260902000218 57 270 3.0 7.0 0.00 0.00 0.00 58 1002.1
20260901235216 58 270 4.0 9.0 0.00 0.00 0.00 57 1002.3
20260901234216 58 293 5.0 9.0 0.00 0.00 0.00 56 1002.3
20260901233216 57 45 1.0 3.0 0.00 0.00 0.00 58 1002.4
20260901232257 57 23 1.0 4.0 0.00 0.00 0.00 59 1002.3
20260901231256 56 0.0 2.0 0.00 0.00 0.00 59 1002.4
20260901230216 56 248 2.0 4.0 0.00 0.00 0.00 59 1002.8
20260901225216 56 270 1.0 3.0 0.00 0.00 0.00 59 1002.7
20260901224217 55 0.0 2.0 0.00 0.00 0.00 60 1002.5
20260901223237 54 270 2.0 4.0 0.00 0.00 0.00 60 1002.5
20260901222257 54 315 2.0 5.0 0.00 0.00 0.00 62 1002.6
20260901221216 53 270 6.0 10.0 0.00 0.00 0.00 63 1002.7
20260901220237 51 0.0 1.0 0.00 0.00 0.00 65 1002.7
20260901215217 51 270 1.0 3.0 0.00 0.00 0.00 66 1002.7
20260901214216 51 23 1.0 3.0 0.00 0.00 0.00 62 1002.5
20260901213216 52 0.0 2.0 0.00 0.00 0.00 61 1002.5
20260901212216 52 338 3.0 4.0 0.00 0.00 0.00 59 1002.2
20260901211217 51 315 2.0 4.0 0.00 0.00 0.00 60 1002.6
20260901210216 50 315 1.0 3.0 0.00 0.00 0.00 62 1002.6
20260901205216 50 270 1.0 3.0 0.00 0.00 0.00 62 1002.3
20260901204216 50 270 4.0 6.0 0.00 0.00 0.00 63 1002.3
20260901203216 51 248 1.0 2.0 0.00 0.00 0.00 63 1001.9
20260901202216 50 0.0 0.0 0.00 0.00 0.00 63 1001.9
20260901201216 51 0 2.0 5.0 0.00 0.00 0.00 62 1001.8
20260901200216 50 293 6.0 9.0 0.00 0.00 0.00 63 1001.8
20260901195217 51 293 2.0 5.0 0.00 0.00 0.00 61 1001.7
20260901194217 51 225 3.0 5.0 0.00 0.00 0.00 60 1001.8
20260901193216 51 293 3.0 7.0 0.00 0.00 0.00 60 1001.9
20260901192306 50 0.0 0.0 0.00 0.00 0.00 60 1001.8
20260901191717 50 0.0 2.0 0.00 0.00 0.00 59 1001.9
20260901190718 50 0.0 1.0 0.00 0.00 0.00 60 1002.1
20260901185717 51 0.0 0.0 0.00 0.00 0.00 58 1002.0
20260901184717 51 225 3.0 7.0 0.00 0.00 0.00 59 1001.9
20260901183717 50 248 1.0 3.0 0.00 0.00 0.00 61 1001.8
20260901182737 51 0.0 1.0 0.00 0.00 0.00 61 1001.8
20260901181717 50 180 2.0 4.0 0.00 0.00 0.00 62 1001.9
20260901180717 50 158 2.0 6.0 0.00 0.00 0.00 61 1001.7
20260901175737 50 23 2.0 5.0 0.00 0.00 0.00 60 1001.8
20260901174758 50 180 1.0 3.0 0.00 0.00 0.00 60 1001.7
20260901173717 49 293 1.0 3.0 0.00 0.00 0.00 63 1001.6
20260901172717 50 315 2.0 3.0 0.00 0.00 0.00 62 1001.4
20260901171717 50 293 1.0 2.0 0.00 0.00 0.00 62 1001.4
20260901170717 50 248 1.0 2.0 0.00 0.00 0.00 62 1001.5
20260901165718 48 315 2.0 4.0 0.00 0.00 0.00 66 1001.6
20260901164717 48 0.0 1.0 0.00 0.00 0.00 70 1001.4
20260901163717 49 113 2.0 4.0 0.00 0.00 0.00 66 1001.5
20260901162717 50 0.0 1.0 0.00 0.00 0.00 65 1001.6
20260901161717 51 180 2.0 4.0 0.00 0.00 0.00 66 1001.7
20260901160717 51 203 3.0 4.0 0.00 0.00 0.00 64 1002.0
20260901155717 52 248 1.0 2.0 0.00 0.00 0.00 63 1001.7
20260901154737 52 0.0 1.0 0.00 0.00 0.00 61 1001.7
20260901153757 51 0.0 1.0 0.00 0.00 0.00 61 1001.6
20260901152717 52 225 1.0 1.0 0.00 0.00 0.00 61 1001.5
20260901151850 52 270 2.0 3.0 0.00 0.00 0.00 60 1001.7
20260901151621 52 203 3.0 4.0 0.00 0.00 0.00 60 1001.7
20260901150620 52 225 3.0 8.0 0.00 0.00 0.00 61 1001.6
20260901145657 52 315 1.0 3.0 0.00 0.00 0.00 65 1001.6
20260901144617 52 45 1.0 2.0 0.00 0.00 0.00 67 1001.6
20260901143617 52 225 2.0 9.0 0.00 0.00 0.00 69 1001.2
20260901142637 52 0.0 1.0 0.00 0.00 0.00 73 1001.3
20260901141617 52 0 2.0 3.0 0.00 0.00 0.00 76 1001.4
20260901140617 53 45 2.0 5.0 0.00 0.00 0.00 76 1001.4
20260901135636 54 0.0 0.0 0.00 0.00 0.00 74 1001.4
20260901134616 54 0.0 0.0 0.00 0.00 0.00 73 1001.1
20260901133616 55 315 1.0 2.0 0.00 0.00 0.00 69 1000.9
20260901132616 56 203 1.0 3.0 0.00 0.00 0.00 68 1000.7
20260901131616 56 248 2.0 4.0 0.00 0.00 0.00 70 1000.7
20260901130616 56 225 1.0 1.0 0.00 0.00 0.00 73 1000.8
20260901125616 56 0 1.0 2.0 0.00 0.00 0.00 74 1000.7
20260901124616 56 113 1.0 4.0 0.00 0.00 0.00 75 1000.7
20260901123617 56 135 1.0 2.0 0.00 0.00 0.00 76 1000.7
20260901122637 56 0.0 2.0 0.00 0.00 0.00 79 1000.5
20260901121636 56 90 2.0 4.0 0.00 0.00 0.00 80 1000.2
20260901120616 56 0.0 1.0 0.00 0.00 0.00 80 1000.2
20260901115617 57 0 1.0 3.0 0.00 0.00 0.00 80 1000.0
20260901114616 57 0.0 1.0 0.00 0.00 0.00 79 999.8
20260901113617 57 90 2.0 3.0 0.00 0.00 0.00 77 999.7
20260901112616 58 90 1.0 4.0 0.00 0.00 0.00 76 999.7
20260901111616 58 135 3.0 4.0 0.00 0.00 0.00 75 999.5
20260901110616 58 113 1.0 2.0 0.00 0.00 0.00 73 999.4
20260901105657 59 135 2.0 3.0 0.00 0.00 0.00 71 999.3
20260901104616 60 0.0 3.0 0.00 0.00 0.00 67 999.2
20260901103616 61 0.0 1.0 0.00 0.00 0.00 65 998.7
20260901102636 61 90 2.0 2.0 0.00 0.00 0.00 64 998.7
20260901101616 61 315 2.0 4.0 0.00 0.00 0.00 63 998.6
20260901100616 61 135 1.0 2.0 0.00 0.00 0.00 61 998.5
20260901095616 61 135 4.0 9.0 0.00 0.00 0.00 62 998.3
20260901094637 61 45 3.0 6.0 0.00 0.00 0.00 61 997.9
20260901093616 62 23 6.0 10.0 0.00 0.00 0.00 60 997.4
20260901092616 62 293 3.0 4.0 0.00 0.00 0.00 60 997.1
20260901091616 61 0.0 1.0 0.00 0.00 0.00 59 997.2
20260901090617 62 225 1.0 3.0 0.00 0.00 0.00 59 997.5
20260901085616 61 270 3.0 4.0 0.00 0.00 0.00 59 997.3
20260901084616 60 203 3.0 7.0 0.00 0.00 0.00 61 997.5
20260901083616 60 270 1.0 2.0 0.00 0.00 0.00 64 997.7
20260901082616 60 225 2.0 4.0 0.00 0.00 0.00 63 998.0
20260901081616 61 338 5.0 10.0 0.00 0.00 0.00 63 998.3
20260901080616 61 293 8.0 12.0 0.00 0.00 0.00 61 998.8
20260901075616 61 135 1.0 3.0 0.00 0.00 0.00 61 998.7
20260901074616 61 315 3.0 4.0 0.00 0.00 0.00 60 998.8
20260901073616 61 180 1.0 2.0 0.00 0.00 0.00 59 998.6
20260901072616 61 270 6.0 13.0 0.00 0.00 0.00 59 998.8
20260901071616 61 0.0 0.0 0.00 0.00 0.00 59 998.7
20260901070636 62 270 3.0 6.0 0.00 0.00 0.00 57 998.7
20260901065636 62 45 5.0 11.0 0.00 0.00 0.00 57 998.8
20260901064616 62 248 1.0 3.0 0.00 0.00 0.00 56 998.7
20260901063636 63 248 4.0 11.0 0.00 0.00 0.00 56 998.7
20260901062616 63 315 4.0 9.0 0.00 0.00 0.00 55 999.1
20260901061636 64 293 3.0 6.0 0.00 0.00 0.00 54 999.0
20260901060616 65 270 5.0 8.0 0.00 0.00 0.00 52 999.0
20260901055616 65 293 8.0 14.0 0.00 0.00 0.00 51 998.7
20260901054616 66 338 5.0 10.0 0.00 0.00 0.00 51 998.9
20260901053616 65 293 5.0 10.0 0.00 0.00 0.00 51 998.6
20260901052616 65 315 5.0 8.0 0.00 0.00 0.00 51 998.7
20260901051617 64 315 8.0 13.0 0.00 0.00 0.00 49 998.5
20260901050616 65 315 7.0 11.0 0.00 0.00 0.00 48 999.1
20260901045616 65 180 5.0 13.0 0.00 0.00 0.00 47 999.2
20260901044616 66 0.0 1.0 0.00 0.00 0.00 46 999.3
20260901043636 67 23 4.0 8.0 0.00 0.00 0.00 45 999.3
20260901042656 67 23 2.0 3.0 0.00 0.00 0.00 43 999.9
20260901041616 68 293 4.0 11.0 0.00 0.00 0.00 43 1000.5
20260901040616 67 315 3.0 6.0 0.00 0.00 0.00 44 1000.9
20260901035616 67 0.0 2.0 0.00 0.00 0.00 48 1000.9
20260901034616 67 315 1.0 2.0 0.00 0.00 0.00 46 1001.2
20260901033616 66 315 1.0 2.0 0.00 0.00 0.00 47 1001.7
20260901032618 65 293 1.0 4.0 0.00 0.00 0.00 45 1001.8
20260901031617 65 270 1.0 3.0 0.00 0.00 0.00 46 1002.2
20260901030618 65 23 2.0 5.0 0.00 0.00 0.00 44 1002.2
20260901025618 65 315 3.0 5.0 0.00 0.00 0.00 44 1002.6
20260901024618 65 338 4.0 11.0 0.00 0.00 0.00 46 1003.0
20260901023618 65 315 2.0 5.0 0.00 0.00 0.00 45 1003.3
20260901022618 64 23 3.0 5.0 0.00 0.00 0.00 46 1003.3
20260901021618 64 0 5.0 12.0 0.00 0.00 0.00 47 1003.5
20260901020638 64 0 4.0 6.0 0.00 0.00 0.00 49 1003.8
20260901015638 63 0 2.0 4.0 0.00 0.00 0.00 52 1004.4
20260901014618 63 293 3.0 6.0 0.00 0.00 0.00 49 1004.7
20260901013618 63 338 2.0 5.0 0.00 0.00 0.00 51 1005.0
20260901012638 62 0 2.0 3.0 0.00 0.00 0.00 50 1005.1
20260901011618 62 315 5.0 10.0 0.00 0.00 0.00 50 1005.3
20260901010618 61 0 4.0 10.0 0.00 0.00 0.00 49 1005.6
20260901005618 61 0 2.0 3.0 0.00 0.00 0.00 51 1006.0
20260901004638 60 338 3.0 5.0 0.00 0.00 0.00 49 1006.4
20260901003618 60 338 3.0 6.0 0.00 0.00 0.00 50 1006.7
20260901002618 60 45 3.0 9.0 0.00 0.00 0.00 50 1006.9
20260901001638 59 338 3.0 9.0 0.00 0.00 0.00 51 1007.0